This is the latest recevied weather packets stored in our database for station/object K8RRT. If no packets are shown the sender has not sent any weather packets the latest 10 day(s).
| Time | Temp. | Humidity | Pressure | Rain* | Wind** | Luminosity | Snow |
|---|---|---|---|---|---|---|---|
| 1778045702 | 15° C | 99% | 1003.8 hPa | 0 mm | - | 0 W/m² | - |
| 1778045400 | 15° C | 99% | 1003.9 hPa | 0 mm | - | 0 W/m² | - |
| 1778045098 | 15° C | 99% | 1003.8 hPa | 0 mm | - | 0 W/m² | - |
| 1778044795 | 15° C | 98% | 1003.9 hPa | 0 mm | - | 0 W/m² | - |
| 1778044492 | 15° C | 98% | 1004 hPa | 0 mm | - | 0 W/m² | - |
| 1778044189 | 15° C | 98% | 1003.8 hPa | 0 mm | - | 0 W/m² | - |
| 1778043887 | 15° C | 98% | 1003.4 hPa | 0 mm | - | 0 W/m² | - |
| 1778043584 | 15° C | 97% | 1003.6 hPa | 0 mm | - | 0 W/m² | - |
| 1778043280 | 15° C | 97% | 1003.7 hPa | 1.78 mm | - | 0 W/m² | - |
| 1778042977 | 15° C | 97% | 1003.5 hPa | 3.05 mm | - | 0 W/m² | - |
| 1778042675 | 15° C | 96% | 1003.7 hPa | 1.27 mm | - | 0 W/m² | - |
| 1778042372 | 15° C | 96% | 1003.8 hPa | 0 mm | - | 0 W/m² | - |
| 1778042069 | 15° C | 96% | 1003.7 hPa | 0 mm | - | 0 W/m² | - |
| 1778041767 | 15° C | 96% | 1003.6 hPa | 0 mm | - | 0 W/m² | - |
| 1778041466 | 15° C | 95% | 1003.8 hPa | 0 mm | - | 0 W/m² | - |
| 1778041164 | 15° C | 95% | 1004 hPa | 0 mm | - | 0 W/m² | - |
| 1778040861 | 15° C | 95% | 1004.2 hPa | 1.78 mm | - | 0 W/m² | - |
| 1778040558 | 15° C | 94% | 1004.4 hPa | 1.78 mm | - | 0 W/m² | - |
| 1778040256 | 15° C | 94% | 1003.9 hPa | 0 mm | - | 0 W/m² | - |
| 1778039951 | 15° C | 94% | 1004 hPa | 0 mm | - | 0 W/m² | - |
| 1778039649 | 15.56° C | 93% | 1004.1 hPa | 0 mm | - | 0 W/m² | - |
| 1778039346 | 15.56° C | 93% | 1004 hPa | 0 mm | - | 0 W/m² | - |
| 1778039043 | 15.56° C | 92% | 1003.8 hPa | 0 mm | - | 0 W/m² | - |
| 1778038740 | 15.56° C | 91% | 1004.2 hPa | 0 mm | - | 0 W/m² | - |
| 1778038437 | 16.11° C | 89% | 1004.1 hPa | 1.27 mm | - | 0 W/m² | - |
* Rain latest hour (hover to see other rain measurements)
** Current wind speed in m/s (hover to see current wind gust speed)